Weather in Nikolskoe

Russia / Kamchatka Krai     55°11′52″N   165°59′46″E
В апреле 2022 года жителям России запретили посещать сайт meteo.paraplan.net по решению Генеральной прокуратуры. Аудитория сайта уменьшилась в 10 раз. Владельцы сайта не видят смысла в поддержке погодного сервера в таких условиях. Сайт будет закрыт в октябре.
temp.,
°C
wind,
m/s
gust,
m/s
humid.,
%
clouds,
%
prec.,
mm/h
press.,
hPa
HPBL,
m
3 october, mon
mon300:00+7n6878100 3.5 1006569
03:00+7nnw897787 0.4 1008716
06:00+7nnw786714 1.1 1010869
09:00+8nw89675 0.2 10121160
12:00+8nw89659 0.2 10131206
15:00+8wnw78615 0.0 10141168
18:00+7wnw5659100 0.0 1015664
21:00+7wsw4560100 0.0 1016507
4 october, tue
tue400:00+7sw566698 0.0 1015544
03:00+8ssw7973100 0.0 1014644
06:00+9sw797788 0.0 1013540
09:00+10ssw9118471 0.0 1013773
12:00+10ssw91289100 0.1 1013883
15:00+10ssw111492100 0.2 1011717
18:00+10ssw121693100 0.3 1010700
21:00+10ssw141885100 0.1 1010827
5 october, wed
wed500:00+10sw162183100 0.3 1009883
03:00+10ssw152286100 0.0 1007775
06:00+10ssw152189100 0.1 1005661
09:00+10s152083100 0.0 1003763
12:00+10s122091100 0.5 1000741
15:00+10s132095100 2.8 996559
18:00+11s152396100 4.9 993789
21:00+11ssw152297100 3.6 991734
6 october, thu
thu600:00+11sw151984100 3.9 992792
03:00+7nnw121281100 0.1 997868
06:00+7nw101154100 0.3 1002887
09:00+7sw7106925 0.0 10061284
12:00+9sw1114611 0.1 10071649
15:00+9wsw1114624 0.0 10081551
18:00+8wsw1012615 0.0 10091150
21:00+8sw1012615 0.0 1010978
7 october, fri
fri700:00+8sw1113655 0.0 10101126
03:00+8sw13166964 0.1 10101167
06:00+8sw12157496 0.3 10101008
09:00+8ssw121479100 0.6 10091280
12:00+8w911796 1.6 1008864
15:00+9wsw10126677 0.9 10091499
18:00+8wsw786342 1.4 1010788
21:00+8wsw79603 0.3 1011911